Weather History for Alamosa, CO

Change the Weather History Date:

Wednesday, April 23, 2014

  Actual Average Record
Temperature  
Mean Temperature 52 °F 44 °F  
Max Temperature 66 °F 62 °F 78 °F (2012)
Min Temperature 38 °F 27 °F 10 °F (1970)
Degree Days  
Heating Degree Days 13 21  
Month to date heating degree days 495 557  
Since 1 July heating degree days 7938 7863  
Cooling Degree Days 0 0  
Month to date cooling degree days 0 0  
Year to date cooling degree days 0 0  
Growing Degree Days 2 (Base 50)    
Moisture  
Dew Point 21 °F    
Average Humidity 34    
Maximum Humidity 53    
Minimum Humidity 14    
Precipitation  
Precipitation 0.00 in 0.02 in 0.64 in (1942)
Month to date precipitation 1.01 0.45  
Year to date precipitation 1.53 1.50  
Snow  
Snow 0.00 in 0.20 in 4.50 in (1932)
Month to date snowfall 6.6 3.0  
Since 1 July snowfall 38.1 26.1  
Snow Depth 0.00 in    
Sea Level Pressure  
Sea Level Pressure 29.62 in    
Wind  
Wind Speed 18 mph (WSW)    
Max Wind Speed 37 mph    
Max Gust Speed 44 mph    
Visibility 10 miles    
Events      
T = Trace of Precipitation, MM = Missing Value Source: NWS Daily Summary

Daily Weather History Graph

Daily Weather History Graph

Search for Another Location

Airport:

Trip Planner

Search our weather history database for the weather conditions in past years. The results will help you decide how hot, cold, wet, or windy it might be!

Date:

Astronomy

Apr. 23, 2014 Rise Set
Actual Time 6:17 AM MDT 7:46 PM MDT
Civil Twilight 5:50 AM MDT 8:13 PM MDT
Nautical Twilight 5:17 AM MDT 8:46 PM MDT
Astronomical Twilight 4:42 AM MDT 9:21 PM MDT
Moon 2:44 AM MDT (4/23) 2:04 PM MDT (4/23)
Length of Visible Light 14h 23m
Length of Day
13h 28m
Waning Crescent, 34% of the Moon is Illuminated
Apr 23
Waning Crescent
Apr 29
New
May 6
First Quarter
May 14
Full
May 21
Last Quarter

Hourly Weather History & Observations

Time (MDT) Temp. Windchill Dew Point Humidity Pressure Visibility Wind Dir Wind Speed Gust Speed Precip Events Conditions
12:52 AM 50.0 °F - 28.0 °F 43% 29.65 in 10.0 mi WSW 4.6 mph - N/A   Clear
1:52 AM 45.0 °F 41.8 °F 28.9 °F 53% 29.65 in 10.0 mi East 5.8 mph - N/A   Clear
2:52 AM 50.0 °F - 28.9 °F 44% 29.61 in 10.0 mi NW 10.4 mph 20.7 mph N/A   Mostly Cloudy
3:52 AM 46.9 °F - 28.9 °F 50% 29.60 in 10.0 mi West 11.5 mph - N/A   Clear
4:52 AM 43.0 °F 37.7 °F 27.0 °F 53% 29.62 in 10.0 mi South 9.2 mph - N/A   Clear
5:52 AM 48.9 °F - 23.0 °F 36% 29.57 in 10.0 mi SSW 17.3 mph 25.3 mph N/A   Clear
6:52 AM 50.0 °F - 26.1 °F 39% 29.60 in 10.0 mi SSW 13.8 mph - N/A   Clear
7:52 AM 53.1 °F - 27.0 °F 37% 29.60 in 10.0 mi South 18.4 mph - N/A   Clear
8:52 AM 55.9 °F - 21.0 °F 26% 29.60 in 10.0 mi SW 20.7 mph 28.8 mph N/A   Clear
9:52 AM 59.0 °F - 19.0 °F 21% 29.57 in 10.0 mi SW 19.6 mph 29.9 mph N/A   Clear
10:52 AM 60.1 °F - 17.1 °F 19% 29.58 in 10.0 mi SSW 19.6 mph 31.1 mph N/A   Clear
11:52 AM 63.0 °F - 14.0 °F 15% 29.57 in 10.0 mi SW 18.4 mph 28.8 mph N/A   Clear
12:52 PM 63.0 °F - 16.0 °F 16% 29.56 in 10.0 mi SSW 20.7 mph 29.9 mph N/A   Partly Cloudy
1:52 PM 62.1 °F - 12.9 °F 15% 29.57 in 10.0 mi WSW 18.4 mph 26.5 mph N/A   Partly Cloudy
2:52 PM 63.0 °F - 17.1 °F 17% 29.54 in 10.0 mi SW 27.6 mph 38.0 mph N/A   Partly Cloudy
3:52 PM 62.1 °F - 19.0 °F 19% 29.55 in 10.0 mi SW 24.2 mph 33.4 mph N/A   Clear
4:52 PM 55.9 °F - 18.0 °F 23% 29.60 in 10.0 mi SW 26.5 mph 36.8 mph N/A   Mostly Cloudy
5:52 PM 52.0 °F - 17.1 °F 25% 29.62 in 10.0 mi WSW 28.8 mph 36.8 mph N/A   Overcast
6:52 PM 51.1 °F - 17.1 °F 26% 29.63 in 10.0 mi WSW 20.7 mph 25.3 mph N/A   Scattered Clouds
7:52 PM 48.0 °F - 15.1 °F 27% 29.66 in 10.0 mi West 11.5 mph - N/A   Scattered Clouds
8:52 PM 44.1 °F 36.2 °F 24.1 °F 45% 29.74 in 10.0 mi NNW 18.4 mph 25.3 mph N/A   Overcast
9:52 PM 41.0 °F 33.1 °F 25.0 °F 53% 29.75 in 10.0 mi North 15.0 mph - N/A   Partly Cloudy
10:52 PM 41.0 °F 32.8 °F 21.0 °F 45% 29.72 in 10.0 mi NW 16.1 mph 25.3 mph N/A   Clear
11:52 PM 39.0 °F 30.3 °F 19.9 °F 46% 29.77 in 10.0 mi North 16.1 mph - N/A   Clear